Temp
2 2 2 2 2 1 1 1 0 -0 -1 -1 -1 -0 1 1 1 3 4 6 8 8 10 10 11 12 12 12 12 12 12 11
2 2 2 2 1 1 1 0 -0 -1 -1 -2 -2 -2 -1 1 1 2 3 4 7 7 8 10 11 11 12 12 12 12 12 11
2 2 1 1 1 0 0 -0 -1 -1 -2 -2 -2 -2 -2 -1 0 1 2 3 4 6 7 8 9 10 11 11 12 12 12 12
2 2 1 1 0 0 -0 -1 -1 -2 -2 -2 -3 -3 -2 -2 -1 0 1 2 3 6 6 6 8 9 11 11 12 12 12 11
2 2 1 1 -0 -0 -1 -1 -2 -2 -2 -2 -3 -3 -3 -3 -3 -1 -0 1 2 5 6 6 6 8 10 10 11 11 11 11
2 1 1 0 0 -0 -1 -1 -2 -2 -2 -3 -3 -3 -3 -3 -3 -2 -1 1 1 2 5 5 6 6 9 10 11 11 11 12
2 1 0 0 -0 -1 -1 -2 -2 -2 -3 -3 -3 -3 -4 -4 -3 -3 -2 -1 1 0 3 4 4 6 7 9 10 11 11 11
1 0 -0 -0 -1 -1 -2 -2 -2 -3 -3 -3 -3 -3 -4 -4 -4 -3 -3 -2 -2 -0 0 3 4 5 6 8 9 11 11 11
1 0 -0 -1 -1 -2 -2 -2 -2 -3 -3 -3 -3 -4 -4 -4 -4 -3 -3 -2 -2 -2 -1 0 3 4 5 6 8 11 11 11
1 0 -0 -1 -1 -2 -2 -2 -3 -3 -3 -4 -4 -4 -4 -4 -4 -3 -3 -2 -3 -2 -2 -1 1 3 6 6 7 10 10 11
0 -0 -1 -1 -2 -2 -2 -3 -3 -3 -4 -4 -4 -4 -4 -4 -4 -4 -3 -3 -3 -2 -2 -1 -0 2 4 6 7 9 9 10
0 -1 -1 -2 -2 -2 -2 -2 -3 -4 -4 -4 -5 -4 -4 -4 -4 -4 -3 -3 -3 -2 -2 -1 -0 1 3 5 5 7 8 10
-0 -1 -1 -2 -2 -2 -2 -3 -3 -4 -5 -5 -5 -5 -4 -4 -4 -3 -3 -3 -3 -2 -2 -1 -0 1 2 4 5 6 7 9
0 -1 -1 -1 -2 -2 -3 -3 -4 -5 -5 -5 -5 -5 -4 -4 -4 -3 -3 -3 -3 -3 -2 -1 -0 0 1 2 4 5 6 7
0 -0 -1 -1 -2 -2 -3 -4 -4 -5 -5 -5 -5 -5 -4 -4 -4 -4 -3 -3 -3 -3 -2 -1 -1 0 1 1 2 4 4 6
0 -0 -1 -1 -2 -2 -3 -4 -4 -5 -5 -5 -5 -5 -4 -5 -4 -4 -4 -4 -3 -3 -3 -2 -1 0 1 1 1 2 3 4
0 -0 -1 -1 -2 -2 -3 -4 -4 -5 -5 -5 -5 -5 -5 -5 -4 -5 -4 -4 -4 -3 -3 -2 -2 -1 0 1 1 1 2 3
0 -0 -1 -1 -2 -3 -3 -4 -4 -5 -5 -5 -5 -5 -4 -5 -5 -4 -4 -4 -4 -3 -3 -3 -2 -2 -1 0 -1 -1 0 1
0 -0 -1 -2 -2 -3 -3 -4 -4 -5 -5 -5 -5 -5 -5 -4 -5 -5 -5 -4 -4 -4 -3 -3 -3 -2 -2 -1 -3 -2 -1 -0
Height
1593 1591 1588 1586 1583 1580 1577 1573 1569 1564 1560 1555 1551 1546 1543 1539 1536 1533 1533 1526 1526 1525 1523 1524 1526 1529 1532 1533 1535 1532 1544 1547
1589 1587 1585 1584 1581 1579 1576 1573 1569 1564 1559 1555 1550 1545 1542 1538 1535 1532 1528 1526 1522 1525 1522 1522 1522 1525 1528 1529 1531 1534 1536 1544
1585 1584 1582 1581 1579 1577 1575 1572 1568 1564 1560 1556 1551 1546 1542 1537 1533 1531 1527 1524 1524 1521 1518 1518 1519 1519 1523 1525 1526 1530 1533 1535
1582 1581 1579 1579 1577 1576 1574 1570 1567 1564 1559 1555 1551 1546 1541 1536 1532 1528 1525 1522 1519 1516 1517 1515 1515 1515 1518 1522 1523 1527 1528 1529
1576 1576 1577 1576 1576 1574 1572 1569 1566 1562 1559 1554 1550 1546 1540 1535 1531 1526 1522 1517 1514 1513 1516 1514 1513 1512 1515 1517 1521 1523 1526 1524
1572 1572 1573 1573 1572 1571 1570 1567 1564 1561 1558 1554 1550 1545 1541 1537 1533 1528 1523 1520 1515 1514 1514 1513 1512 1511 1511 1513 1517 1519 1522 1523
1569 1569 1570 1571 1570 1569 1567 1564 1562 1559 1556 1553 1549 1545 1540 1535 1532 1528 1523 1520 1516 1514 1510 1514 1510 1510 1509 1510 1513 1514 1516 1521
1566 1566 1567 1567 1567 1566 1564 1562 1559 1557 1554 1552 1548 1544 1540 1536 1532 1528 1523 1519 1517 1513 1508 1511 1509 1510 1507 1505 1508 1508 1513 1518
1565 1564 1564 1564 1564 1563 1562 1559 1557 1555 1552 1550 1546 1542 1539 1536 1532 1528 1524 1520 1515 1511 1514 1510 1510 1509 1507 1505 1504 1505 1510 1515
1563 1562 1562 1562 1561 1560 1559 1557 1555 1552 1550 1547 1544 1540 1537 1535 1531 1527 1524 1521 1519 1517 1514 1511 1511 1507 1506 1503 1500 1503 1509 1511
1560 1561 1560 1559 1559 1558 1556 1554 1552 1550 1547 1545 1542 1539 1536 1534 1530 1526 1522 1520 1518 1514 1512 1511 1509 1508 1508 1503 1502 1502 1506 1509
1559 1558 1557 1557 1557 1556 1554 1553 1551 1548 1545 1542 1539 1537 1535 1532 1529 1526 1522 1519 1517 1516 1513 1509 1507 1505 1506 1503 1505 1504 1505 1506
1556 1557 1557 1556 1555 1554 1553 1551 1549 1546 1542 1540 1538 1536 1534 1531 1528 1525 1523 1520 1517 1515 1513 1510 1506 1502 1502 1501 1506 1504 1505 1506
1555 1556 1555 1554 1553 1552 1551 1550 1548 1544 1542 1539 1537 1535 1533 1531 1528 1526 1524 1521 1518 1516 1512 1509 1508 1506 1502 1502 1503 1501 1505 1508
1553 1553 1552 1551 1551 1551 1550 1549 1547 1544 1543 1540 1538 1535 1533 1531 1529 1526 1525 1523 1519 1516 1512 1509 1506 1504 1503 1502 1502 1501 1504 1503
1550 1550 1549 1548 1549 1549 1549 1548 1546 1544 1543 1541 1539 1536 1534 1532 1529 1527 1526 1523 1521 1518 1515 1512 1509 1506 1504 1504 1504 1501 1503 1499
1547 1546 1545 1545 1546 1546 1546 1546 1545 1544 1542 1541 1539 1537 1534 1532 1530 1528 1526 1524 1521 1519 1516 1514 1512 1509 1507 1505 1502 1501 1500 1500
1544 1545 1544 1543 1543 1543 1544 1545 1543 1542 1541 1539 1538 1537 1535 1533 1531 1529 1527 1524 1522 1520 1517 1515 1512 1511 1508 1506 1503 1502 1501 1501
1541 1541 1540 1541 1541 1541 1542 1542 1541 1540 1538 1537 1535 1534 1533 1532 1531 1529 1527 1524 1522 1520 1518 1515 1513 1511 1509 1507 1504 1503 1501 1501
Wind_Speed
11 10 11 14 17 21 26 30 33 34 33 29 24 23 21 17 18 14 13 10 15 14 13 16 22 21 19 22 22 38 31 39
14 14 13 13 15 18 22 27 30 31 30 27 26 25 23 19 17 18 15 12 11 17 8 12 17 26 19 18 18 25 30 32
17 16 17 16 14 16 20 23 25 27 28 27 27 25 22 20 19 16 18 13 11 11 11 5 10 17 21 16 20 18 24 36
18 19 19 16 13 15 18 19 21 23 25 26 24 22 20 19 21 19 17 17 13 10 13 8 7 10 20 19 18 20 24 30
22 22 19 16 13 14 16 17 19 20 22 23 25 23 23 22 22 23 20 17 17 10 12 10 7 8 14 19 18 17 13 31
23 20 17 15 13 14 14 16 19 19 19 19 22 23 21 20 20 22 19 15 16 12 10 12 7 8 14 15 18 17 21 22
22 17 14 14 14 13 13 16 17 17 17 17 22 25 23 21 21 20 21 19 15 14 7 10 7 8 7 9 14 17 29 28
18 14 13 14 13 12 13 15 15 15 16 17 22 23 21 19 19 20 21 20 17 15 11 7 8 7 6 8 12 15 18 33
14 14 13 12 12 11 13 12 14 13 15 17 23 21 18 17 17 20 19 18 18 16 13 10 8 7 7 5 6 19 21 26
10 11 12 12 10 12 12 11 13 12 14 19 21 18 17 17 18 20 18 12 14 14 13 12 9 6 10 6 3 11 18 18
10 10 10 9 9 12 11 12 13 15 16 20 18 16 16 16 18 18 14 11 12 14 14 15 11 8 6 4 5 9 9 17
9 9 9 8 10 10 12 15 15 15 19 18 15 14 14 15 16 16 12 11 11 14 15 16 13 9 5 3 4 2 6 14
9 9 10 10 9 11 13 14 13 17 18 14 11 11 12 13 14 12 11 11 12 14 14 13 13 12 8 1 2 1 2 7
10 8 8 10 9 11 10 11 15 16 11 11 11 11 12 13 13 12 10 11 14 18 16 13 12 11 11 5 2 3 2 4
9 8 7 9 9 9 9 10 15 8 10 11 12 13 15 10 10 11 11 13 14 16 17 16 13 11 10 8 5 2 1 1
8 8 9 9 9 7 8 9 11 8 9 12 13 13 13 11 10 9 11 12 14 16 17 16 14 10 11 10 8 3 3 0
9 9 10 9 7 6 6 7 9 7 8 10 12 12 11 10 12 8 8 9 13 14 15 15 15 13 10 9 11 8 3 3
7 9 9 7 6 5 5 5 7 6 7 8 10 12 10 7 9 10 12 14 14 13 13 12 14 14 13 12 10 8 8 5
7 6 6 6 6 6 6 5 6 5 5 8 7 9 9 5 8 10 13 14 14 12 11 11 11 12 13 13 10 8 7 6
Wind_Direction
284 303 322 337 346 351 352 354 353 352 354 354 352 352 356 348 347 326 309 325 305 297 254 253 240 228 240 230 223 214 208 207
267 280 294 309 326 339 347 350 351 351 354 356 353 350 352 348 347 344 309 313 304 309 280 239 243 229 225 224 235 211 209 209
262 267 277 285 306 332 342 345 349 350 352 354 352 348 348 351 343 347 338 300 317 311 307 266 237 216 217 214 217 219 218 222
263 266 272 278 301 322 333 339 344 344 349 351 352 350 348 349 349 342 345 331 307 317 315 316 259 224 210 212 220 218 221 208
265 262 268 275 297 316 322 331 336 335 346 349 351 353 348 347 346 343 341 339 329 308 304 318 302 235 207 211 220 215 229 194
270 266 259 265 288 303 311 327 333 334 344 344 348 349 346 342 345 344 343 345 341 324 296 308 323 274 211 211 213 229 201 198
276 262 260 269 284 300 311 327 334 338 343 341 344 347 346 344 345 348 347 349 350 348 310 299 330 297 223 189 208 200 197 206
278 269 268 270 287 298 319 323 335 337 343 339 343 345 345 345 346 347 347 346 351 350 355 309 312 313 280 185 176 172 219 211
294 287 285 291 297 305 313 314 329 330 335 340 341 342 345 344 343 347 345 347 351 358 349 348 300 308 325 265 195 182 212 218
318 312 298 302 296 312 313 325 340 330 333 338 336 341 343 341 343 345 344 351 0 357 353 355 336 319 288 348 142 185 206 208
324 328 318 309 304 317 326 332 346 333 333 332 334 339 342 343 347 345 355 10 6 3 3 4 341 315 305 321 342 203 200 206
312 328 334 327 322 328 337 336 331 330 331 332 335 339 344 352 1 360 12 8 6 6 2 1 359 355 314 309 334 122 197 194
311 327 345 339 338 340 330 331 329 332 336 345 354 354 352 358 8 12 16 8 12 2 2 7 11 20 21 73 10 10 212 247
319 324 340 339 341 330 329 330 331 337 358 7 9 4 4 10 27 18 20 16 11 1 11 14 20 30 32 40 354 70 82 195
321 324 305 317 327 324 334 329 341 1 8 7 7 7 8 20 21 33 33 15 10 7 14 16 18 28 31 32 29 27 294 225
309 314 291 292 310 310 326 331 353 9 7 3 4 10 17 13 30 29 38 19 20 18 17 18 17 10 23 23 22 19 319 216
300 304 295 276 298 292 305 326 352 1 360 359 357 1 360 8 24 35 22 23 4 9 14 19 20 18 14 10 359 3 323 282
296 307 304 281 278 277 281 312 348 347 351 347 351 358 354 4 15 15 14 11 8 7 12 21 23 20 14 8 10 5 360 313
282 287 285 270 253 264 261 286 334 329 326 345 337 354 1 351 0 1 2 2 2 2 5 13 19 20 16 13 25 15 11 7